This demonstration page uses our WeatherBlox Daily Observations layout. Learn more.

Left ArrowRight Arrow

39.01783, -85.05884

Hourly Observations for August 18, 2017

Temp ( °F °C ) Dew Point ( °F °C ) Humidity (%) Winds ( mph kmh ) Pressure ( in mb ) Visibility ( mi km ) Precip ( " mm )
12:22 am 00:22 Mostly Cloudy with Mist and Fog 73 22.8 73 22.8 100 100 SSW 8 13 29.85 1011 6 10 0.00 0.00
12:52 am 00:52 Cloudy 74 23.3 74 23.3 100 100 SSW 8 13 29.84 1011 7 11 0.00 0.00
1:52 am 01:52 Cloudy 74 23.3 74 23.3 100 100 SSW 8 13 29.83 1010 8 13 0.00 0.00
2:52 am 02:52 Cloudy with Mist and Fog 74 23.3 74 23.3 100 100 WSW 7 11 29.81 1010 6 10 0.00 0.00
3:40 am 03:40 Mostly Cloudy with Mist and Fog 74 23.3 74 23.3 100 100 SW 7 11 29.83 1010 6 10 0.00 0.00
3:49 am 03:49 Cloudy with Mist and Fog 73 23 73 23 100 100 SW 7 11 29.83 1010 6 10 0.00 0.00
3:52 am 03:52 Cloudy with Mist and Fog 74 23.3 74 23.3 100 100 SW 6 9 29.82 1010 6 10 0.00 0.00
4:08 am 04:08 Mostly Cloudy 74 23.3 74 23.3 100 100 SW 6 9 29.83 1010 7 11 0.00 0.00
4:52 am 04:52 Mostly Cloudy 74 23.3 74 23.3 100 100 WSW 3 6 29.83 1010 7 11 0.00 0.00
5:06 am 05:06 Cloudy with Mist and Fog 74 23.3 74 23.3 100 100 SW 5 7 29.83 1010 6 10 0.00 0.00
5:09 am 05:09 Cloudy with Mist and Fog 74 23.3 74 23.3 100 100 SW 6 9 29.83 1010 6 10 0.00 0.00
5:52 am 05:52 Mostly Cloudy 73 22.8 73 22.8 100 100 SW 5 7 29.84 1011 8 13 0.00 0.00
6:03 am 06:03 Mostly Clear with Mist and Fog 73 22.8 73 22.8 100 100 SW 3 6 29.85 1011 5 8 0.00 0.00
6:24 am 06:24 Mostly Cloudy with Mist and Fog 73 22.8 73 22.8 100 100 WSW 6 9 29.85 1011 5 8 0.00 0.00
6:52 am 06:52 Mostly Cloudy with Mist and Fog 72 22.2 72 22.2 100 100 SW 3 6 29.85 1011 4 6 0.00 0.00
6:54 am 06:54 Partly Cloudy with Patchy Fog 73 22.8 73 22.8 100 100 SW 3 6 29.85 1011 4 6 0.00 0.00
7:52 am 07:52 Partly Cloudy with Mist and Fog 73 22.8 73 22.8 100 100 SW 5 7 29.85 1011 6 10 0.00 0.00
8:52 am 08:52 Partly Cloudy 74 23.3 73 22.8 97 97 W 8 13 29.87 1012 10 16 0.00 0.00
9:52 am 09:52 Mostly Cloudy 76 24.4 72 22.2 88 88 W 12 19 29.88 1012 10 16 0.00 0.00
10:52 am 10:52 Mostly Sunny 79 26.1 71 21.7 77 77 W 8 13 29.88 1012 10 16 0.00 0.00
11:52 am 11:52 Mostly Cloudy 81 27.2 68 20 65 65 W 10 17 29.90 1012 10 16 0.00 0.00
12:52 pm 12:52 Mostly Cloudy 82 27.8 66 18.9 58 58 W 12 19 29.89 1012 10 16 0.00 0.00
1:52 pm 13:52 Mostly Cloudy 83 28.3 67 19.4 59 59 WSW 10 17 29.89 1012 10 16 0.00 0.00
2:52 pm 14:52 Mostly Cloudy 84 28.9 65 18.3 53 53 W 17 28 29.89 1012 10 16 0.00 0.00
3:52 pm 15:52 Mostly Cloudy 83 28.3 65 18.3 55 55 WNW 15 24 29.88 1012 10 16 0.00 0.00
4:52 pm 16:52 Partly Cloudy 84 28.9 64 17.8 51 51 W 15 24 29.88 1012 10 16 0.00 0.00
5:52 pm 17:52 Mostly Sunny 83 28.3 64 17.8 53 53 W 10 17 29.88 1012 10 16 0.00 0.00
6:52 pm 18:52 Mostly Sunny 82 27.8 64 17.8 55 55 W 12 19 29.88 1012 10 16 0.00 0.00
7:52 pm 19:52 Mostly Sunny 79 26.1 65 18.3 62 62 WSW 6 9 29.89 1012 10 16 0.00 0.00
8:52 pm 20:52 Mostly Clear 77 25 66 18.9 69 69 SW 5 7 29.89 1012 10 16 0.00 0.00
9:52 pm 21:52 Clear 74 23.3 66 18.9 76 76 SW 6 9 29.90 1013 10 16 0.00 0.00
10:52 pm 22:52 Clear 73 22.8 66 18.9 79 79 WSW 6 9 29.91 1013 10 16 0.00 0.00
11:52 pm 23:52 Clear 72 22.2 66 18.9 82 82 W 5 7 29.91 1013 10 16 0.00 0.00

Powered by AerisWeather